Weather History for Baton Rouge, LA

Change the Weather History Date:

Tuesday, March 11, 2014

  Actual Average Record
Temperature  
Mean Temperature 67 °F 60 °F  
Max Temperature 73 °F 72 °F 87 °F (1904)
Min Temperature 61 °F 49 °F 28 °F (1934)
Degree Days  
Heating Degree Days 0 6  
Month to date heating degree days 104 77  
Since 1 July heating degree days 1810 1412  
Cooling Degree Days 2 2  
Month to date cooling degree days 11 15  
Year to date cooling degree days 31 46  
Growing Degree Days 18 (Base 50)    
Moisture  
Dew Point 61 °F    
Average Humidity 81    
Maximum Humidity 93    
Minimum Humidity 68    
Precipitation  
Precipitation 0.15 in 0.13 in 2.80 in (1896)
Month to date precipitation 0.86 1.63  
Year to date precipitation 10.13 12.39  
Snow  
Snow 0.00 in - - ()
Month to date snowfall 0.0  
Since 1 July snowfall 0.4  
Snow Depth 0.00 in    
Sea Level Pressure  
Sea Level Pressure 29.78 in    
Wind  
Wind Speed 6 mph (SSE)    
Max Wind Speed 14 mph    
Max Gust Speed 18 mph    
Visibility 8 miles    
Events Rain    
T = Trace of Precipitation, MM = Missing Value Source: NWS Daily Summary

Daily Weather History Graph

Daily Weather History Graph

Search for Another Location

Airport:

Trip Planner

Search our weather history database for the weather conditions in past years. The results will help you decide how hot, cold, wet, or windy it might be!

Date:

Astronomy

Mar. 11, 2014 Rise Set
Actual Time 7:19 AM CDT 7:10 PM CDT
Civil Twilight 6:55 AM CDT 7:34 PM CDT
Nautical Twilight 6:27 AM CDT 8:02 PM CDT
Astronomical Twilight 5:59 AM CDT 8:30 PM CDT
Moon 3:00 PM CDT (3/11) 3:58 AM CDT (3/11)
Length of Visible Light 12h 38m
Length of Day
11h 50m
Waxing Gibbous, 78% of the Moon is Illuminated
Mar 11
Waxing Gibbous
Mar 16
Full
Mar 23
Last Quarter
Mar 30
New
Apr 7
First Quarter

Hourly Weather History & Observations

Time (CDT) Temp. Dew Point Humidity Pressure Visibility Wind Dir Wind Speed Gust Speed Precip Events Conditions
12:53 AM 64.9 °F 57.0 °F 75% 29.94 in 10.0 mi South 4.6 mph - N/A   Clear
1:53 AM 64.9 °F 57.9 °F 78% 29.92 in 10.0 mi Calm Calm - N/A   Clear
2:53 AM 63.0 °F 57.9 °F 84% 29.90 in 10.0 mi Calm Calm - N/A   Mostly Cloudy
3:53 AM 64.0 °F 57.9 °F 80% 29.87 in 10.0 mi Calm Calm - N/A   Overcast
4:53 AM 64.0 °F 59.0 °F 84% 29.86 in 10.0 mi Calm Calm - N/A   Overcast
5:53 AM 64.0 °F 59.0 °F 84% 29.84 in 10.0 mi ENE 4.6 mph - N/A   Overcast
6:53 AM 64.0 °F 59.0 °F 84% 29.85 in 10.0 mi ENE 3.5 mph - N/A   Overcast
7:53 AM 63.0 °F 60.1 °F 90% 29.83 in 4.0 mi ENE 5.8 mph - 0.00 in Rain Light Rain
8:53 AM 64.0 °F 60.1 °F 87% 29.83 in 5.0 mi East 8.1 mph - 0.01 in   Overcast
9:04 AM 64.0 °F 61.0 °F 90% 29.84 in 7.0 mi East 4.6 mph - N/A   Mostly Cloudy
9:11 AM 64.0 °F 61.0 °F 90% 29.84 in 7.0 mi East 5.8 mph - N/A   Mostly Cloudy
9:48 AM 64.4 °F 60.8 °F 88% 29.84 in 8.0 mi ESE 6.9 mph - N/A   Overcast
9:53 AM 64.9 °F 61.0 °F 87% 29.83 in 1.5 mi ESE 6.9 mph - 0.00 in Rain Light Rain
9:58 AM 64.9 °F 62.1 °F 90% 29.83 in 4.0 mi ESE 8.1 mph - 0.05 in Rain Light Rain
10:53 AM 66.0 °F 63.0 °F 90% 29.80 in 4.0 mi East 9.2 mph - 0.05 in   Overcast
11:53 AM 66.9 °F 64.0 °F 90% 29.80 in 5.0 mi SSE 9.2 mph - N/A   Overcast
12:53 PM 69.1 °F 64.0 °F 84% 29.78 in 5.0 mi South 9.2 mph - N/A   Haze
1:35 PM 70.0 °F 64.0 °F 81% 29.75 in 8.0 mi SE 6.9 mph - N/A   Mostly Cloudy
1:42 PM 70.0 °F 64.0 °F 81% 29.75 in 10.0 mi SE 5.8 mph - N/A   Mostly Cloudy
1:53 PM 70.0 °F 64.0 °F 81% 29.75 in 10.0 mi ESE 6.9 mph - N/A   Mostly Cloudy
2:00 PM 70.0 °F 64.0 °F 81% 29.74 in 10.0 mi SE 8.1 mph - N/A   Overcast
2:53 PM 72.0 °F 61.0 °F 68% 29.72 in 10.0 mi SSW 12.7 mph - N/A   Mostly Cloudy
3:07 PM 71.1 °F 62.1 °F 73% 29.72 in 10.0 mi South 10.4 mph - N/A   Mostly Cloudy
3:53 PM 71.1 °F 62.1 °F 73% 29.70 in 10.0 mi South 6.9 mph - N/A   Overcast
4:06 PM 70.0 °F 62.1 °F 76% 29.70 in 10.0 mi South 8.1 mph - N/A   Overcast
4:53 PM 72.0 °F 62.1 °F 71% 29.69 in 10.0 mi South 4.6 mph - N/A   Overcast
5:53 PM 73.0 °F 62.1 °F 68% 29.67 in 10.0 mi Calm Calm - N/A   Mostly Cloudy
6:53 PM 71.1 °F 62.1 °F 73% 29.68 in 10.0 mi North 3.5 mph - 0.00 in Rain Light Rain
6:58 PM 70.0 °F 63.0 °F 78% 29.69 in 1.8 mi NW 3.5 mph - 0.00 in Rain Light Rain
7:10 PM 69.1 °F 63.0 °F 81% 29.69 in 10.0 mi Calm Calm - 0.09 in Rain Light Rain
7:53 PM 66.9 °F 64.0 °F 90% 29.69 in 10.0 mi Calm Calm - 0.09 in   Mostly Cloudy
8:53 PM 64.0 °F 62.1 °F 93% 29.69 in 8.0 mi SSW 3.5 mph - N/A   Clear
9:53 PM 64.9 °F 59.0 °F 81% 29.71 in 10.0 mi SSW 8.1 mph - N/A   Clear
10:53 PM 62.1 °F 57.0 °F 84% 29.73 in 10.0 mi SW 6.9 mph - N/A   Clear
11:43 PM 63.0 °F 57.9 °F 84% 29.74 in 10.0 mi SW 10.4 mph - N/A   Mostly Cloudy
11:53 PM 62.1 °F 57.9 °F 86% 29.74 in 10.0 mi SW 11.5 mph - N/A   Mostly Cloudy